www.pogodaiklimat.ru

Погода и климат >> Архив погоды >> Соломоновы Острова >> Хониара


ПОГОДА в Хониаре

  • Прогноз погоды в Хониаре
  • Монитор погоды в Хониаре

АРХИВ ПОГОДЫ в Хониаре

Время (UTC), дата Ветер
(напр.,м/с)
 
Видим.   Явления Облачность Т
(С)
Тd
(С)
f
(%)
Тe
(С)
Тes
(С)
Комфортность P
(гПа)
Po
(гПа)
Тmin
(С)
Tmax
(С)
R
(мм)
R24
(мм)
S
(см)
18 12.06 Ю 3 30 км 1/1 450 м
[Cu Sc Ci sp]
+23.8 +23.1 96 +32 +32 очень
душно
1009.4 1003.0
21 12.06 штиль 0 30 км 1/1 500 м
[Cb cap Cs]
+25.3 +23.0 87 +34 +36 очень
душно
1010.9 1004.6
03 13.06 С 3 25 км мгла 3/3 540 м
[Cu med, cong Ci fib]
+32.0 +24.9 66 +45 +53 опасность
перегрева
1008.1 1001.9
09 13.06 Ю 2 20 км мгла 1/1 450 м
[Cu med, cong]
+26.0 +23.8 88 +36 +36 очень
душно
1009.4 1003.1
12 13.06 Ю 3 20 км мгла 1/1 450 м
[Cu med, cong]
+24.5 +23.8 96 +33 +33 очень
душно
1010.6 1004.2 +32.5
15 13.06 Ю 4 20 км мгла 1/1 450 м
[Cu hum]
+24.0 +22.5 91 +31 +31 очень
душно
1009.8 1003.4
18 13.06 Ю 4 20 км мгла 1/1 450 м
[Cu hum]
+23.4 +21.4 89 +32 +32 очень
душно
1008.9 1002.5
21 13.06 Ю 3 25 км мгла 1/1 480 м
[Cu med, cong]
+24.0 +23.1 95 +32 +34 очень
душно
1010.7 1004.3
00 14.06 С 2 25 км мгла 1/1 540 м
[Cu Sc Ci fib]
+30.5 +22.3 62 +40 +52 опасность
солнечного
удара
1010.6 1004.4 +23.4
03 14.06 С 4 25 км мгла 3/3 540 м
[Cu med, cong]
+30.4 +24.2 70 +42 +49 опасность
перегрева
1007.7 1001.5
06 14.06 СВ 3 25 км мгла 5/5 540 м
[Cu Sc Ac trans]
+29.5 +23.7 71 +40 +41 очень
душно
1007.4 1001.2
12 14.06 Ю 3 25 км мгла 1/1 480 м
[Cu med, cong Ac trans]
+25.0 +22.8 88 +33 +33 очень
душно
1010.5 1004.1 +31.5
15 14.06 Ю 3 25 км мгла 1/1 450 м
[Cu med, cong]
+24.0 +22.4 91 +31 +31 очень
душно
1009.4 1003.0
18 14.06 Ю 3 25 км мгла 1/1 450 м
[Cu med, cong Cs]
+23.0 +21.5 91 +31 +31 очень
душно
1008.9 1002.5
21 14.06 Ю 2 25 км мгла 5/1 480 м
[Cu med, cong Cs]
+23.5 +21.4 88 +30 +31 очень
душно
1010.7 1004.3
00 15.06 штиль 0 25 км мгла 9/1 500 м
[Cu med, cong Ac trans Cs]
+28.6 +23.5 74 +39 +48 очень
душно
1011.3 1005.0 +23.0
03 15.06 СЗ 1 25 км мгла 9/1 540 м
[Cu med, cong Cs]
+30.0 +23.5 68 +41 +42 опасность
перегрева
1008.8 1002.6
06 15.06 штиль 0 25 км осадки на расстоянии 8/3 500 м
[Cu Sc Ac trans Cs]
+29.1 +23.2 71 +39 +40 очень
душно
1008.6 1002.3
09 15.06 Ю 1 25 км мгла 4/1 480 м
[Cu Sc Ac trans Cs]
+25.8 +24.0 90 +36 +36 очень
душно
1010.0 1003.7
15 15.06 Ю 3 20 км мгла 8/3 480 м
[Cu Sc Ac trans Cs]
+24.5 +23.0 91 +32 +32 очень
душно
1009.4 1003.0
18 15.06 Ю 3 20 км мгла 8/3 450 м
[Cu Sc Ac trans Cs]
+24.5 +22.3 88 +32 +32 очень
душно
1008.8 1002.4
21 15.06 Ю 2 20 км мгла 10/4 480 м
[Cu Sc Ac As]
+25.0 +22.8 88 +33 +33 очень
душно
1011.4 1005.0
00 16.06 С 2 25 км мгла 10/4 570 м
[Cu Sc Ac As]
+28.0 +22.9 74 +37 +40 очень
душно
1010.4 1004.1 +24.0
03 16.06 С 1 20 км осадки на расстоянии 10/8 570 м
[Cu Sc Ac As]
+28.9 +23.6 73 +39 +42 очень
душно
1009.1 1002.8
06 16.06 В 2 20 км мгла 10/3 570 м
[Cu Sc Ac trans]
+28.5 +23.9 76 +39 +40 очень
душно
1008.5 1002.2
09 16.06 ЮВ 2 20 км мгла 10/3 500 м
[Cu Sc Ac trans]
+25.9 +24.0 89 +36 +36 очень
душно
1010.7 1004.4
12 16.06 штиль 0 20 км мгла 9/1 450 м
[Cu hum Ac trans Cs]
+24.7 +23.0 90 +33 +33 очень
душно
1011.3 1004.9 +31.4
15 16.06 ЮВ 2 20 км осадки на расстоянии 10/4 450 м
[Cu Sc Ac As]
+25.5 +22.7 85 +34 +34 очень
душно
1010.0 1003.7
21 16.06 Ю 3 20 км мгла 9/1 480 м
[Cu med, cong Ac trans Cs]
+26.5 +22.8 80 +35 +36 очень
душно
1010.2 1003.9
00 17.06 ЮВ 4 25 км мгла 6/3 540 м
[Cu Sc Ac trans Cs]
+30.5 +23.3 65 +41 +46 опасность
перегрева
1010.3 1004.1 +24.4 0.4
03 17.06 СВ 4 25 км мгла 6/3 570 м
[Cu Sc Cs]
+31.5 +24.4 66 +44 +48 опасность
перегрева
1007.3 1001.1
06 17.06 В 3 25 км мгла 6/1 540 м
[Cu Sc Ac trans Cs]
+29.6 +23.1 68 +40 +40 очень
душно
1007.3 1001.1
09 17.06 Ю 1 25 км мгла 9/1 450 м
[Cu Sc Ac trans Cs]
+26.4 +23.1 82 +35 +35 очень
душно
1009.8 1003.5
12 17.06 Ю 1 25 км мгла 3/1 450 м
[Cu med, cong Cs]
+24.5 +23.0 91 +32 +32 очень
душно
1010.2 1003.8 +33.0
15 17.06 Ю 3 25 км мгла 5/1 450 м
[Cu Sc Ac trans Cs]
+24.4 +23.6 95 +33 +33 очень
душно
1009.4 1003.0
18 17.06 Ю 3 30 км 3/1 450 м
[Cu med, cong Ac trans Cs]
+23.9 +22.5 92 +31 +31 очень
душно
1008.5 1002.1
21 17.06 Ю 3 25 км мгла 9/1 480 м
[Cu Sc Ac trans Cs]
+25.0 +22.6 87 +33 +33 очень
душно
1010.1 1003.8
00 18.06 С 2 25 км мгла 5/1 540 м
[Cu med, cong Ac trans Cs]
+31.5 +23.6 63 +43 +53 опасность
перегрева
1009.6 1003.4 +23.9
03 18.06 С 2 25 км мгла 8/3 540 м
[Cu Sc Ac trans Cs]
+31.5 +23.6 63 +43 +46 опасность
перегрева
1007.7 1001.5
12 18.06 Ю 1 25 км мгла 10/4 480 м
[Cu Sc Ac trans Cs]
+25.8 +23.6 88 +35 +35 очень
душно
1010.0 1003.7 +33.0
15 18.06 Ю 2 15 км слаб. дождь 10/5 420 м
[Cu Sc As op]
+24.8 +24.7 99 +35 +35 очень
душно
1008.4 1002.1 2
18 18.06 Ю 2 25 км осадки на расстоянии 10/3 420 м
[Cu Sc Ac As]
+25.0 +24.3 96 +35 +35 очень
душно
1008.4 1002.1 0.2
21 18.06 Ю 2 25 км осадки на расстоянии 9/3 450 м
[Cu Sc Ac trans Cs]
+25.5 +24.1 92 +35 +36 очень
душно
1009.7 1003.4
00 19.06 СВ 3 25 км осадки на расстоянии 9/3 570 м
[Cb cap Ac trans Cs]
+30.5 +23.0 64 +40 +45 очень
душно
1010.4 1004.2 +24.7 2
03 19.06 С 3 25 км осадки на расстоянии 5/3 540 м
[Cu Sc Ac trans Cs]
+31.2 +24.1 66 +43 +49 опасность
перегрева
1008.2 1002.0
06 19.06 штиль 0 25 км мгла 4/1 540 м
[Cu med, cong Ac trans Cs]
+30.0 +23.5 68 +41 +42 опасность
перегрева
1007.8 1001.6
15 19.06 Ю 3 25 км мгла 6/6
[Cu med, cong Cs]
+25.0 +23.5 91 +34 +34 очень
душно
1008.8 1002.5

 

Местоположение метеостанции Хониара (Соломоновы Острова): широта -9.42 долгота 159.97 высота над уровнем моря 55 м.

В архиве по умолчанию представлена погода в Хониаре за последнюю неделю. Архивные данные за месяц целиком и за предыдущие месяцы, начиная с января 2011 года, Вы можете получить, выбрав интересующий диапазон дат из раскрывающегося списка и нажав кнопку "Ввод!".


*Определитесь, кто Вы:
робот инопланетянин человек

Внимание! Время в таблицах - всемирное. Для получения местного времени необходимо прибавить поправку, которая равна 11 ч.

Смотрите также архив погоды в соседних городах и на ближайших метеорологических станциях:

Погода в Хониара аэропорту (Соломоновы Острова) (9 км)
Погода в Ауки (Соломоновы Острова) (110 км)
Погода в Манде (Соломоновы Острова) (322 км)
Погода на Острове Таро (Соломоновы Острова) (495 км)
Погода на Островах Санта-Круз (Соломоновы Острова) (653 км)
Погода на Мисиме (Папуа Новая Гвинея) (794 км)
Погода на Линуа (Вануату) (845 км)
Погода в Соле (Вануату) (961 км)
Погода в Токуа (Папуа Новая Гвинея) (1013 км)
Погода в Санто-Пекоа (Вануату) (1037 км)

Пояснения к столбцам:

Ветер - указаны скорость ветра в м/с - средняя за 10 мин, порывы в срок и между сроками (в фигурных скобках) и направление, откуда дует ветер: С - северный, СВ - северо-восточный, В - восточный, ЮВ - юго-восточный, Ю - южный, ЮЗ - юго-западный, З - западный, СЗ - северо-западный.
Видимость - горизонтальная дальность видимости в метрах или километрах. При видимости от 1 до 10 км при отсутствии осадков обычно наблюдается дымка, при ухудшении видимости до 1 км и менее - туман. В сухую погоду видимость может ухудшаться дымом, пылью или мглою.
Явления - указаны атмосферные явления, наблюдавшиеся в срок или в последний час перед сроком; фигурными скобками обозначены явления, наблюдавшиеся между сроками (за 1-3 часа до срока); квадратными скобками обозначены град или гололедные отложения с указанием их диаметра в мм.
Облачность - указаны через наклонную черту общая и нижняя облачность в баллах и высота нижней границы облаков в метрах; квадратными скобками обозначены формы облаков: Ci - перистые, Cs - перисто-слоистые, Cc - перисто-кучевые, Ac - высококучевые, As - высокослоистые, Sc - слоисто-кучевые, Ns - слоисто-дождевые, Cu - кучевые, Cb - кучево-дождевые. Подробнее классификацию облаков см. в Атласе облаков (PDF).
T - Температура воздуха - температура, измеренная на высоте 2 м над землей.
Td - Температура точки росы - температура, при понижении до которой содержащийся в воздухе водяной пар достигнет насыщения.
f - Относительная влажность воздуха - влажноcть воздуха, измеренная на высоте 2 м над землей.
Te - Эффективная температура - температура, которую ощущает одетый по сезону человек в тени. Характеристика душности погоды. При расчете учитывается влияние влажности воздуха и скорости ветра на теплоощущения человека.
Tes - Эффективная температура на солнце - температура, которую ощущает человек, с поправкой на солнечный нагрев. Характеристика знойности погоды. Зависит от высоты солнца над горизонтом, облачности и скорости ветра. Ночью, в пасмурную погоду, а также при ветре 12 м/с и более поправка равна нулю.
P - Атмосферное давление - приведенное к уровню моря атмосферное давление.
Po - Атмосферное давление - измеренное на уровне метеостанции атмосферное давление.
Tmin - Минимальная температура - минимум температуры воздуха на высоте 2 м над землей.
Tmax - Максимальная температура - максимум температуры воздуха на высоте 2 м над землей.
R - Количество осадков - Количество выпавших осадков за период времени, мм. При наведении курсора мыши на число - период времени, за который выпало указанное количество осадков.
R24 - Количество осадков - Количество выпавших осадков за 24 часа, мм.
S - Снежный покров - Высота снежного покрова, см. При наведении курсора мыши на число - состояние снежного покрова и степень покрытия местности в баллах.